Regional Weather Roundup
Issued by NWS San Diego, CA

Home | Current Version | Previous Version | Text Only | Print | Product List | Glossary On
Versions: 1 2 3 4 5 6 7 8 9 10 11 12 13 14 15 16 17 18 19 20 21 22 23 24 25 26 27 28 29 30 31 32 33 34 35 36 37 38 39 40 41 42 43 44 45 46 47 48 49 50
000
ASUS46 KSGX 281911
RWRSGX
SAN DIEGO HOURLY WEATHER ROUNDUP
NATIONAL WEATHER SERVICE SAN DIEGO CA
1200 PM PDT SUN MAY 28 2017

NOTE: "FAIR" INDICATES FEW OR NO CLOUDS BELOW 12,000 FEET WITH NO
SIGNIFICANT WEATHER AND/OR OBSTRUCTIONS TO VISIBILITY.

CAZ042-043-060-061-PZZ750-775-282000-

GREATER SAN DIEGO AREA

CITY           SKY/WX    TMP DP  RH WIND       PRES   REMARKS
SAN DIEGO AP   MOSUNNY   70  56  61 NW12      30.04R
NATIONAL CITY    N/A     68  58  69 NW9       30.02R
CHULA VISTA      N/A     69  59  71 W16       29.94S
IMPERIAL BEACH SUNNY     68  56  65 W15       30.04R
BROWN FIELD    SUNNY     70  56  61 W14G20    30.01S
MIRAMAR MCAS   MOSUNNY   72  54  53 W10G20    30.02R
MONTGOMERY FLD SUNNY     70  53  54 W9        30.02S

$$

NORTH SAN DIEGO COUNTY

CITY           SKY/WX    TMP DP  RH WIND       PRES   REMARKS
CAMP PENDLETON SUNNY     71  58  63 W8        30.01R
OCEANSIDE AP   SUNNY     68  57  68 W13       30.01S
OCEANSIDE HBR    N/A     64  57  79 SW2       30.05S
VISTA            N/A     69  58  69 W3        29.99S
CARLSBAD       SUNNY     65  56  72 W10       30.02R
DEL MAR          N/A     68  58  71 CALM      30.05R
LA JOLLA SCRIP   N/A     63  58  83 SW9       30.03R
FALLBROOK        N/A     74  60  62 W2        30.01F
ESCONDIDO        N/A     78  58  50 W2        30.01F
SAN MARCOS       N/A     71  58  62 W12       30.03R
POWAY            N/A     76  58  54 W5        30.02S

$$

EAST SAN DIEGO COUNTY

CITY           SKY/WX    TMP DP  RH WIND       PRES   REMARKS
RAMONA         SUNNY     75  51  43 VRB5      30.01F
SANTEE LAKES     N/A     75  58  55 W3        29.99S
LA MESA          N/A     71  57  61 NW5       29.94S
JAMUL            N/A     74  58  57 CALM      30.01S
DESCANSO N       N/A     75  49  38 SW3       29.95S
CAMPO            N/A     82  46  28 SW15      29.98S

$$

ORANGE COUNTY AND THE LOS ANGELES BASIN

CITY           SKY/WX    TMP DP  RH WIND       PRES   REMARKS
JOHN WAYNE AP  SUNNY     71  56  58 W9        30.01S
LAGUNA BEACH     N/A     68  59  73 W8        29.98R
LAKE FOREST FR   N/A     75  53  46 W3        29.90F
HUNTINGTON BCH   N/A     68  60  75 W7        30.04S
LOS ALAMITOS   MOSUNNY   72  57  59 S10       30.01F
FULLERTON      SUNNY     77  54  44 CALM      30.00S
LONG BEACH     SUNNY     71  53  52 S8        30.01F
L.A. AP        MOSUNNY   68  56  65 W12       30.02S
L.A. DOWNTOWN  SUNNY     77  56  48 VRB3      30.00S

$$

THE INLAND EMPIRE

CITY           SKY/WX    TMP DP  RH WIND       PRES   REMARKS
CORONA         SUNNY     76  54  46 N5        30.00F
CHINO          SUNNY     80  53  39 VRB3      30.01F
ONTARIO        SUNNY     77  49  37 SW5       30.00F
SAN BERNARDINO SUNNY     79  46  31 CALM      30.01F HAZE
RIVERSIDE AP   SUNNY     76  53  44 VRB5      30.00F
MORENO VALLEY    N/A     80  57  45 W5        28.12F
MARCH ARB      SUNNY     77  49  36 W6        30.01S
HORSETHIEF CYN   N/A     76  46  35 CALM      30.00F
PERRIS           N/A     77  53  43 NW5       30.03F
HEMET EAST       N/A     77  42  28 SW5       30.04S
FRENCH VALLEY  FAIR      77  48  36 CALM      30.01F
TEMECULA         N/A     77  54  44 N1        30.04F

$$

SAN BERNARDINO AND RIVERSIDE COUNTY MOUNTAINS

CITY           SKY/WX    TMP DP  RH WIND       PRES   REMARKS
BIG BEAR AP    SUNNY     66  21  18 E9G16     30.26S
ANGELUS OAKS     N/A     73  33  23 CALM      29.91S
PINE COVE        N/A     72  27  18 SE1       29.94R

$$

SOUTHERN DESERT INCLUDING THE COACHELLA VALLEY

CITY           SKY/WX    TMP DP  RH WIND       PRES   REMARKS
PALM SPRINGS   SUNNY    100  23   6 SE5       29.89F
PALM DESERT      N/A    101  35  10 CALM      28.37S HX  95
THERMAL        SUNNY    102  24   6 CALM      29.83F HX  95
BLYTHE         SUNNY     95  28   9 SE3       29.88S
IMPERIAL AP    SUNNY     97  38  13 N7        29.86S
EL CENTRO NAS  SUNNY     97  26   8 VRB5      29.88S
YUMA AZ        SUNNY     94  42  16 CALM      29.87
MEXICALI       SUNNY     95  27   8 W7        29.88

$$

UPPER DESERT

CITY           SKY/WX    TMP DP  RH WIND       PRES   REMARKS
VICTORVILLE AP MOSUNNY   84  34  16 CALM      30.05S
HESPERIA         N/A     85  36  17 NW2       30.06F
PALMDALE       SUNNY     85  39  19 VRB6      30.04F
LANCASTER      SUNNY     86  38  18 CALM      30.03F
EDWARDS AFB    SUNNY     82  41  23 N5        30.01F
DAGGETT        SUNNY     90  33  13 MISG      30.00F
29 PALMS N     SUNNY     90  24   9 W3        30.06S
NEEDLES        SUNNY    100  21   6 N15       29.90F

$$

REGIONAL REPORTS

CITY           SKY/WX    TMP DP  RH WIND       PRES   REMARKS
SANTA BARBARA  SUNNY     64  55  72 SW6       30.03S
SANDBERG       SUNNY     82  29  14 E12G24    30.16S
LAS VEGAS NV   MOSUNNY   90  16   6 NE9       30.02F
PHOENIX AZ     MOSUNNY   93  29  10 VRB5      29.88F
TIJUANA        SUNNY     70  52  52 NW13      30.04R
ENSENADA NW      N/A     65  32  28 W12       29.99R

$$

OFFSHORE ISLANDS

CITY           SKY/WX    TMP DP  RH WIND       PRES   REMARKS
CATALINA ARPT  SUNNY     61  54  77 W13       30.05S
SAN NICOLAS IS PTSUNNY   62  62 100 NW17G25   30.05S

$$

MARINE AND OFFSHORE BUOY REPORTS

STATION/POSITION SKY/WX   TEMP    WIND        PRES    VSBY  SWELL
                          AIR SEA DIR/SP/G                  HT/PER/DIR
                          (F)     (DEG/KT/KT) (MB)    (MI)  (FT/S/D)
TANNER BANKS               58 60  310/ 16/ 17 1018.4R         3/310/11
S CLEMENTE BASIN           60 63  280/ 12/ 16 1017.5S         3/260/10
SAN NICOLAS IS.               58                N/A           2/250/11
SO. S. ROSA ISLA           55 57  310/ 17/ 21 1017.6R         3/290/10
W. S. BARBARA CH           55 55  310/ 17/ 23 1017.1F         2/280/10
M. S. BARBARA CH           57 58  260/ 10/ 12 1017.9R         2/260/ 6
S. MONICA BASIN            60 63  320/  4/  6 1017.1R         3/250/ 6
S PEDRO CHANNEL               63                N/A
CMP PENDLETON NS              61                N/A           2/210/14
OCEANSIDE OFFSHR              63                N/A           2/200/13
TORREY PINES OTR              64                N/A           2/200/14
SAN DIEGO BAY                 68              1017.0R
POINT LOMA SOUTH              64                N/A           2/200/13

$$




USA.gov is the U.S. government's official web portal to all federal, state and local government web resources and services.